Lapse_Rate
5.3 5.4 5.3 5.3 5.2 5.2 5.1 5.1 5.4 5.4 5.6 6.1 6.1 6.4 6.7 6.5 6.4 6.6 6.8 6.8 6.8 6.5 6.7 7.0 7.3 7.5 7.8 7.6 7.3 7.2 8.1 7.9 7.2 7.2 6.6 6.2 6.1 5.7 5.6 5.6 5.4 5.6 5.4 6.1 6.2
5.4 5.4 5.5 5.4 5.3 5.3 5.3 5.2 5.3 5.5 5.5 5.8 6.2 6.4 6.6 6.6 6.6 6.6 6.7 6.9 6.7 6.8 6.9 7.1 7.3 7.5 7.8 7.7 7.5 7.0 9.0 7.5 7.2 6.9 6.5 6.3 6.3 5.7 5.7 5.6 5.5 5.3 5.8 5.7 5.7
5.6 5.6 5.6 5.6 5.5 5.5 5.5 5.4 5.4 5.5 5.5 5.8 6.0 6.3 6.5 6.6 6.8 6.7 6.8 6.9 6.8 6.8 7.0 7.1 7.3 7.5 7.2 7.7 7.8 7.4 8.0 7.2 7.1 6.9 6.4 6.0 6.1 6.0 6.0 5.8 5.5 5.1 5.8 5.6 5.5
5.4 5.6 5.7 5.7 5.6 5.6 5.6 5.6 5.6 5.7 5.7 5.8 6.0 6.2 6.4 6.6 6.8 6.8 6.8 7.0 6.8 6.9 6.9 7.1 7.3 7.3 7.7 7.6 7.9 7.8 7.5 7.4 7.1 6.9 6.6 6.0 5.9 6.1 6.0 5.9 5.6 5.2 5.6 5.4 5.5
5.4 5.5 5.6 5.8 5.7 5.7 5.7 5.7 5.8 6.1 6.0 5.9 6.1 6.2 6.3 6.5 6.6 6.7 7.0 6.9 6.8 7.1 7.1 7.1 6.8 7.4 7.5 7.6 7.7 7.7 7.4 7.5 7.1 6.8 6.7 6.3 6.0 5.9 5.7 5.5 5.8 5.3 5.6 5.3 5.3
5.5 5.6 5.5 5.7 5.8 5.8 5.8 5.8 5.8 6.2 6.3 6.2 6.2 6.3 6.4 6.1 6.6 6.5 6.9 7.1 7.0 7.3 7.0 7.0 7.1 7.2 7.0 7.5 7.6 7.5 7.4 7.5 7.1 7.0 6.8 6.4 6.0 5.8 5.9 6.0 6.0 5.8 4.9 4.7 4.6
5.5 5.5 5.6 5.7 5.7 5.9 6.0 6.1 6.0 6.1 6.2 6.3 6.3 6.5 6.5 6.4 6.5 6.4 6.6 6.9 7.2 7.1 7.0 6.9 7.1 7.1 7.0 7.1 7.3 7.5 7.5 7.2 6.9 6.7 6.6 6.4 6.0 6.1 6.2 6.2 6.1 5.6 4.8 5.2 5.4
5.6 5.7 5.7 5.7 5.7 5.9 6.0 6.1 6.1 6.1 6.2 6.2 6.4 6.5 6.6 6.7 6.6 6.4 6.4 6.6 6.9 7.1 7.4 7.2 7.4 7.5 6.9 7.1 7.0 7.5 7.6 8.4 6.9 6.6 6.9 6.6 6.9 6.3 6.2 6.1 5.9 5.4 4.8 4.9 5.5
5.6 5.7 5.7 5.8 5.9 5.9 6.0 6.1 6.2 6.2 6.2 6.3 6.4 6.5 6.5 6.7 6.8 6.6 6.5 6.5 6.8 7.1 7.5 7.4 7.4 7.3 7.2 7.5 7.6 7.7 8.0 8.0 7.2 6.6 6.4 6.6 6.8 6.4 6.3 5.6 6.0 5.7 5.6 5.4 4.8
6.0 6.1 6.0 6.0 5.9 5.9 5.9 6.0 6.2 6.3 6.3 6.3 6.4 6.5 6.6 6.7 6.9 6.9 6.7 6.7 6.8 7.0 7.1 7.4 7.3 7.6 7.6 8.0 8.4 8.2 8.2 7.9 7.4 7.1 6.7 6.7 6.7 6.3 6.5 6.0 5.7 5.9 5.6 5.5 5.6
6.2 6.2 6.2 6.0 6.0 6.0 5.9 5.9 6.0 6.2 6.3 6.5 6.2 6.6 6.8 6.9 6.9 7.0 6.9 6.8 6.8 6.8 7.0 7.1 7.4 8.8 8.0 7.9 7.8 7.7 8.0 7.7 7.5 7.2 7.1 7.1 6.7 6.8 6.3 6.2 6.0 6.2 6.0 5.5 5.4
6.5 6.4 6.4 6.3 6.2 6.1 6.1 6.0 6.0 6.2 6.0 6.3 6.5 6.5 6.6 6.8 6.7 6.9 7.0 7.0 6.9 7.0 7.1 7.3 7.6 7.5 7.4 7.5 7.8 8.1 8.3 8.3 7.8 7.4 7.1 7.5 7.1 7.0 6.8 7.2 6.5 6.4 6.5 6.1 5.9
6.6 6.6 6.6 6.5 6.4 6.2 6.2 6.1 6.1 6.2 6.1 6.4 6.4 6.3 6.2 6.2 6.2 6.4 6.6 6.6 6.7 7.0 7.1 7.3 7.4 7.4 7.5 7.8 8.0 8.7 8.4 8.3 8.3 7.6 7.6 7.7 8.1 7.7 7.2 6.9 7.0 6.5 6.5 6.4 6.3
6.7 6.7 6.7 6.6 6.6 6.5 6.4 6.3 6.3 6.4 6.4 6.3 6.3 6.1 6.0 6.0 5.9 6.3 6.5 6.3 6.5 6.9 6.9 7.1 7.3 7.4 7.6 7.8 8.0 9.5 7.8 8.0 8.1 8.3 9.2 8.1 9.5 8.4 8.1 7.6 7.9 7.1 6.8 6.7 6.8
6.8 6.8 6.7 6.7 6.7 6.6 6.5 6.5 6.5 6.5 7.9 6.4 6.2 6.4 6.2 6.0 6.0 6.3 6.3 6.2 6.3 6.5 6.7 7.3 7.1 7.3 7.6 7.9 7.6 7.7 7.8 8.1 8.3 8.7 8.7 9.0 9.0 9.4 8.7 8.4 8.1 7.6 7.6 7.2 6.8
6.7 6.9 6.9 6.8 6.8 6.7 6.6 6.6 6.6 6.5 7.6 6.3 6.3 6.2 6.2 6.0 6.1 6.2 6.2 6.1 6.0 6.2 6.5 6.9 6.9 7.1 7.5 7.5 7.4 7.5 7.7 7.8 8.1 8.4 9.6 9.3 8.6 9.7 9.4 9.0 8.6 8.2 8.1 8.0 7.7
6.6 6.7 6.8 6.8 6.8 6.7 6.6 6.6 6.5 7.4 6.8 6.6 6.6 6.4 6.6 6.5 6.3 6.1 6.0 6.0 6.4 6.4 6.7 6.7 6.9 6.9 7.0 7.3 7.3 7.3 7.9 9.5 9.7 9.9 9.9 8.1 8.4 9.3 8.9 8.7 8.4 8.2 7.9 8.0 7.8
6.8 6.8 6.7 6.7 6.6 6.6 6.5 6.1 6.9 7.0 7.1 6.7 6.6 6.6 6.8 6.7 6.8 6.5 6.5 6.6 6.5 6.6 7.0 7.2 7.7 7.0 7.1 7.1 7.7 7.6 7.9 9.5 9.4 9.8 9.9 7.8 8.8 9.5 8.8 8.8 8.7 8.7 8.5 8.0 8.0
6.8 6.7 6.8 6.6 6.5 6.4 6.3 6.4 7.4 6.9 6.5 6.6 6.7 6.9 7.0 6.8 7.0 6.7 6.8 7.1 7.0 6.8 7.2 7.5 7.5 6.8 6.8 6.9 7.1 7.7 7.4 8.0 8.3 8.4 8.4 9.2 8.8 8.8 8.8 8.8 8.5 8.4 8.8 8.8 8.2
6.7 6.7 6.6 6.6 6.4 6.1 5.7 6.5 6.1 6.6 6.9 6.9 7.2 7.0 7.5 7.2 7.0 7.1 7.1 6.9 6.9 7.0 7.1 7.4 7.6 7.1 6.8 7.0 7.2 7.4 7.6 7.9 8.0 8.2 8.1 9.4 8.5 9.0 8.4 8.4 8.4 8.4 8.3 8.2 8.1
6.6 6.4 6.6 6.5 6.3 6.0 6.0 6.2 5.6 6.5 6.6 6.3 6.7 7.0 7.4 7.4 7.5 7.6 7.6 6.6 6.9 7.0 7.1 7.4 7.5 7.6 7.1 7.4 8.0 7.4 7.7 7.7 8.1 8.2 8.7 9.1 9.7 8.5 8.4 8.5 8.3 8.5 8.2 8.1 8.2
6.5 5.7 6.4 6.3 5.6 5.5 5.8 5.4 6.1 6.1 6.4 6.2 6.4 6.3 6.9 6.8 7.2 7.4 7.3 7.0 7.2 7.2 7.1 7.2 7.9 8.1 8.3 7.7 7.7 7.8 8.1 8.1 8.5 8.7 8.1 7.9 8.3 8.5 8.4 8.4 8.2 8.2 8.2 8.4 8.6
6.3 6.2 6.0 5.9 6.0 5.8 5.5 5.6 5.9 5.8 6.1 5.9 5.9 6.3 6.5 6.4 6.8 6.8 6.7 6.9 7.0 7.0 7.0 7.0 7.6 8.3 8.4 8.0 7.6 7.6 7.8 7.8 8.0 8.1 8.0 8.4 8.8 8.1 8.3 8.3 8.3 8.2 8.2 8.4 8.6
5.9 5.4 5.5 5.4 5.6 5.5 5.4 5.3 5.3 5.6 5.7 5.8 5.7 6.0 6.1 6.2 6.4 6.1 6.2 6.4 6.6 6.8 7.0 7.1 7.7 7.8 9.0 9.5 8.4 7.5 7.8 7.6 7.6 8.0 8.3 8.8 8.3 8.2 7.9 7.6 8.0 8.2 8.2 8.2 8.5
5.6 5.6 5.7 5.2 5.2 5.3 5.3 5.2 5.2 5.1 5.3 5.3 5.2 5.4 5.6 6.0 6.0 6.2 5.8 5.8 6.0 6.2 6.3 6.3 6.9 7.4 7.3 7.6 7.4 7.4 7.4 7.7 7.7 7.6 7.5 7.7 7.5 7.4 7.2 7.4 7.7 7.9 8.2 8.2 8.3
5.5 5.5 5.6 5.5 5.4 5.2 5.1 5.1 5.0 5.1 5.2 4.8 5.0 5.2 5.3 5.5 5.5 5.9 5.3 5.7 5.9 5.4 5.9 6.1 6.5 6.2 6.5 7.0 6.9 6.8 6.8 7.0 7.1 7.4 7.5 7.7 7.4 7.9 6.7 7.1 7.6 7.8 8.0 8.3 8.1
5.3 5.4 5.5 5.5 5.4 5.2 5.2 5.4 5.2 5.2 5.1 5.2 5.2 5.2 4.9 4.7 5.6 5.6 5.7 5.6 5.2 5.5 5.8 5.9 6.4 6.3 6.6 7.3 7.1 6.1 6.6 6.7 6.7 6.9 7.3 7.1 7.4 7.0 7.1 6.8 7.2 7.6 7.7 8.1 8.4
Wind_Speed
16 15 15 14 12 11 10 10 11 9 10 8 12 11 13 14 16 6 4 4 3 15 9 8 7 4 6 3 4 6 3 9 9 5 8 9 12 7 5 12 8 3 8 17 16
16 17 16 14 13 11 9 10 11 10 10 10 10 10 13 12 6 7 5 8 17 14 10 8 5 5 4 2 3 6 9 9 5 9 10 8 7 8 11 14 10 10 16 18 16
18 17 17 16 14 11 9 9 10 10 9 9 10 9 12 11 6 5 5 12 16 12 4 4 5 6 4 5 2 2 10 4 5 8 11 12 8 5 11 9 11 16 18 17 15
20 19 18 17 15 13 10 8 9 10 9 9 10 10 11 5 2 4 5 11 12 7 5 3 6 5 1 3 3 3 5 4 9 10 10 9 10 8 3 5 12 12 18 16 15
19 20 20 18 16 14 11 8 7 9 9 9 9 9 6 7 6 5 8 12 10 4 4 3 2 4 4 3 3 7 7 9 10 10 10 9 6 7 5 6 9 15 17 16 13
20 20 21 19 17 15 13 9 7 6 8 9 8 10 5 6 2 6 11 11 7 7 1 3 5 6 4 5 8 7 13 13 10 10 8 6 8 6 7 11 14 17 16 15 14
21 20 20 20 19 16 13 10 6 5 7 8 6 4 5 6 3 6 10 8 4 4 2 5 7 6 2 8 2 6 11 11 9 7 5 4 9 3 12 13 15 14 14 13 13
21 21 21 20 19 17 12 10 8 7 7 6 5 3 2 3 1 6 8 8 6 5 3 2 6 1 4 4 5 4 3 3 7 6 4 7 10 9 12 14 15 14 13 12 13
22 22 21 21 20 17 13 10 8 5 5 6 6 5 7 1 4 5 6 4 7 5 3 3 5 3 5 9 7 5 3 3 3 5 4 9 4 9 12 12 14 14 14 13 13
24 23 22 21 20 18 12 5 5 5 5 5 3 6 7 5 5 5 5 4 4 5 3 5 4 4 4 5 5 5 4 2 2 6 7 6 5 6 13 13 13 15 15 15 15
24 23 22 21 19 15 4 4 4 5 6 4 3 3 5 6 8 6 6 7 6 7 10 2 8 5 11 5 5 6 5 4 2 1 8 9 8 8 12 14 14 15 16 16 17
23 22 21 20 20 7 5 4 5 5 3 3 4 4 2 0 6 9 8 9 9 12 5 6 9 4 0 2 7 9 8 3 4 1 6 7 9 10 13 17 16 17 16 17 17
25 23 21 21 17 4 5 2 1 5 5 6 4 5 7 7 4 11 12 6 9 11 11 13 9 4 2 3 7 4 6 5 5 2 6 7 9 8 12 16 17 17 17 17 17
23 23 20 22 4 2 4 2 4 4 5 7 8 6 8 5 7 0 10 6 6 10 5 8 2 7 7 6 6 5 5 2 1 6 4 4 3 7 7 11 16 19 19 19 19
23 21 18 10 6 4 5 3 2 4 5 7 7 5 6 8 9 7 6 8 9 8 6 3 5 7 11 10 3 6 4 3 3 6 7 10 7 8 5 7 11 16 19 20 19
24 20 15 5 4 3 3 2 4 6 2 7 7 10 12 10 5 8 10 5 2 5 8 12 0 5 5 3 3 5 4 5 6 8 10 8 5 2 3 2 3 1 15 20 21
27 19 6 4 2 1 3 4 5 6 3 8 10 9 14 9 8 10 13 13 9 9 12 13 14 10 8 10 7 9 11 9 5 6 2 5 8 7 10 6 7 7 9 15 19
29 17 9 4 3 4 5 6 6 2 5 3 5 7 12 9 7 9 11 12 10 7 1 8 11 16 14 15 10 13 14 9 6 8 7 4 5 1 8 13 7 9 8 10 17
27 4 3 2 4 4 7 8 3 1 2 5 7 9 10 10 4 10 12 11 9 14 7 5 5 4 3 8 10 11 11 10 11 8 9 6 2 11 3 4 2 10 5 6 11
3 3 4 1 3 6 7 6 1 2 3 5 8 6 12 14 12 11 11 2 8 10 14 2 5 2 5 6 4 11 5 8 11 13 15 3 3 4 8 9 5 11 11 7 4
4 3 4 1 4 6 8 2 3 3 3 3 4 5 6 7 13 11 7 6 2 3 11 9 9 8 6 10 8 7 10 8 10 8 10 11 4 7 6 7 7 8 9 7 1
4 3 4 3 6 3 7 1 2 1 1 1 2 2 4 5 10 9 10 2 2 4 7 11 7 10 13 6 2 8 11 10 9 9 8 8 12 11 7 9 7 11 9 8 7
1 2 3 3 5 7 4 5 3 2 3 1 2 3 1 2 4 4 5 3 4 4 4 7 8 10 12 8 9 9 10 11 12 10 13 12 9 4 1 9 11 14 14 11 10
3 4 3 2 2 3 7 5 5 4 5 2 1 2 4 5 0 3 7 3 2 3 5 2 13 12 12 8 4 4 7 6 10 10 12 13 14 10 11 12 13 16 14 12 12
4 3 4 4 4 3 2 1 6 3 2 2 3 1 2 5 6 5 3 5 4 3 3 5 12 13 14 11 11 13 15 14 15 14 16 16 17 17 12 12 13 12 13 14 13
3 2 2 3 2 4 2 2 3 3 3 3 3 2 2 6 5 3 5 4 3 2 5 4 10 7 15 13 14 18 17 17 18 18 20 19 21 9 5 8 9 11 11 12 12
4 1 5 1 3 4 2 3 3 2 2 3 3 5 6 4 8 8 8 8 9 7 7 7 9 9 17 15 14 17 18 22 21 20 18 16 11 9 9 7 8 9 10 12 13
Wind_Direction
346 345 344 344 341 336 329 317 311 312 308 312 312 320 315 318 304 217 236 76 145 161 214 170 199 177 200 239 240 250 106 75 80 63 122 134 123 103 121 137 142 92 142 123 141
345 345 344 341 340 342 327 317 306 307 306 312 309 316 312 323 257 231 98 119 151 176 190 199 211 185 237 217 206 270 61 48 53 84 128 139 129 123 150 144 140 137 112 134 149
348 347 344 342 339 338 333 316 306 306 308 312 309 310 305 309 234 87 148 152 171 193 251 264 265 244 225 209 154 15 40 46 74 104 124 138 129 135 142 163 157 148 146 151 156
346 345 343 341 338 335 332 322 309 307 306 310 308 310 303 242 147 85 170 173 183 228 253 257 232 217 82 79 83 194 66 66 97 129 130 144 122 132 122 71 160 160 157 157 165
346 342 340 339 338 334 329 322 314 305 305 306 304 311 267 211 84 112 152 150 178 223 255 311 14 289 74 62 87 32 96 102 122 130 132 125 121 114 64 110 144 155 164 168 171
343 341 338 338 338 334 329 321 308 297 295 293 305 304 255 188 69 140 167 173 202 222 162 345 12 351 49 33 43 77 104 115 124 126 146 139 127 168 116 134 137 154 173 179 178
341 339 338 338 336 334 328 315 296 275 267 285 292 287 254 71 31 146 178 195 195 245 65 27 343 300 320 105 71 115 117 123 131 148 145 171 156 105 143 154 155 174 177 177 185
341 340 339 336 333 330 325 311 289 258 256 246 257 253 83 13 105 165 180 192 214 221 284 9 316 4 342 131 161 123 264 231 131 185 134 248 99 123 158 165 168 178 180 189 189
342 342 338 335 332 327 316 304 273 238 218 211 220 244 134 131 213 158 199 210 176 196 228 287 268 345 179 203 177 199 16 15 191 199 168 244 69 141 171 177 173 181 185 193 197
344 343 338 333 330 324 310 259 179 196 205 220 245 229 160 154 145 155 181 237 202 174 206 234 239 241 181 246 47 5 344 8 261 176 213 228 238 169 185 190 186 186 190 195 202
341 340 336 332 334 327 242 191 210 177 215 341 92 1 135 113 158 186 177 185 199 218 234 179 270 245 23 6 343 312 309 309 142 189 263 253 248 205 200 206 199 197 195 200 204
341 340 337 333 332 332 268 261 34 4 216 210 239 257 187 330 163 159 185 206 208 224 211 241 251 20 30 273 284 306 306 58 128 111 257 275 259 235 203 215 217 206 203 205 205
339 339 338 331 328 259 257 282 23 320 255 149 182 197 177 212 201 176 197 202 223 223 224 254 65 115 226 249 280 277 354 37 7 181 225 288 243 219 219 214 217 225 213 209 207
335 333 334 328 287 140 220 132 266 282 244 137 183 166 180 227 190 302 211 221 215 243 221 262 73 244 249 269 287 304 12 323 208 269 27 329 350 171 194 208 214 218 217 213 210
332 328 324 319 319 225 67 315 229 220 218 142 146 111 170 215 120 168 171 204 239 204 227 203 217 225 249 268 282 50 336 297 285 261 284 168 270 126 176 218 216 219 223 220 212
329 322 316 202 225 302 301 262 233 231 166 149 147 178 180 193 146 140 179 224 332 216 231 272 345 249 275 161 250 150 235 217 236 277 272 80 301 248 136 90 330 336 208 219 216
328 319 263 294 60 343 260 212 224 258 141 155 170 184 197 179 163 182 184 195 205 207 222 215 233 222 229 235 190 221 251 257 245 232 307 66 295 265 318 334 342 290 269 213 212
327 315 184 275 297 298 215 219 246 54 173 117 168 184 195 172 198 178 186 203 211 246 257 223 205 209 216 233 256 224 256 277 287 290 326 132 273 96 325 309 294 287 257 241 205
317 171 175 63 236 228 222 218 342 140 82 186 171 198 185 191 234 191 205 214 207 209 241 205 223 122 224 237 240 213 240 276 287 247 265 270 280 275 305 311 84 45 39 190 204
274 195 73 30 181 226 223 256 189 357 297 218 226 239 198 188 200 200 181 165 221 224 232 155 253 142 126 174 180 260 354 231 226 267 272 255 241 284 18 35 71 50 45 63 190
237 201 57 174 229 213 221 173 172 80 323 275 218 205 242 187 216 203 180 116 217 155 230 226 243 153 193 208 189 174 222 230 286 292 291 286 280 73 309 359 351 1 23 26 15
282 192 45 235 190 253 211 199 238 93 77 195 277 318 247 202 213 217 198 326 28 222 190 214 244 237 238 118 304 282 278 246 255 236 236 287 279 313 327 319 336 333 338 342 330
314 77 96 268 209 190 152 144 58 177 54 319 173 338 315 186 217 232 179 101 25 223 205 180 229 240 225 190 206 231 227 247 264 272 263 275 270 164 198 289 332 336 333 338 328
274 183 130 100 358 256 178 172 147 56 76 47 46 236 221 211 107 174 182 131 65 29 347 224 254 252 270 308 20 207 203 221 279 271 270 259 282 275 297 331 332 334 335 327 323
348 67 358 158 104 119 231 243 185 148 51 18 170 88 296 239 231 215 225 187 168 137 226 271 256 258 268 281 280 276 277 270 260 259 271 289 296 300 326 320 321 314 329 331 333
355 316 141 91 130 194 172 106 206 134 333 151 258 327 302 264 325 311 315 236 280 217 255 247 262 268 263 265 268 266 263 262 261 266 272 274 277 315 332 311 316 320 331 337 342
13 95 293 178 159 225 90 130 129 274 101 73 332 282 245 44 326 313 295 294 287 287 268 268 271 242 263 269 274 267 258 251 254 262 273 278 309 346 333 341 324 348 353 356 354